DateTimeUTC,F1_A11,F1_S11,BsB_S11,BsG_S11,BsR_S11,BbsB_S11,BbsG_S11,BbsR_S11,BaB_A11,BaG_A11,BaR_A11,Tu_S11,T_S11,Uu_S11,U_S11,P_S11,T1_A11
2021-07-03T17:00:00Z,00000200,20000000,,,,,,,0000.03,-000.30,-000.07,19.3,25.7,10.3,07.0,0672.3,31.2
2021-07-03T17:01:00Z,00000200,20000000,,,,,,,-000.23,0000.12,0000.01,19.3,25.7,10.3,07.0,0672.3,31.2
2021-07-03T17:02:00Z,00000200,20000000,,,,,,,0000.19,-000.29,0000.07,19.3,25.7,10.3,07.0,0672.3,31.2
2021-07-03T17:03:00Z,00000200,60000000,,,,,,,0000.08,0000.17,0000.11,19.3,25.7,10.3,07.0,0672.3,31.2
2021-07-03T17:04:00Z,00000200,40000000,0000.80,0000.38,0000.12,0000.49,-000.19,-000.02,-000.18,0000.37,-000.15,19.3,25.5,10.2,07.0,0673.2,31.1
2021-07-03T17:05:00Z,00000200,00000000,0000.99,0000.48,0000.33,-000.52,0000.26,-000.01,-000.15,-000.39,-000.51,19.4,25.5,10.2,07.0,0673.3,31.2
2021-07-03T17:06:00Z,00000200,00000000,0001.16,0000.38,0000.48,-000.46,0000.31,-000.13,0000.23,-000.08,0000.49,19.4,25.5,10.2,07.0,0673.3,31.2
2021-07-03T17:07:00Z,00000200,00000000,0000.51,0000.12,0000.18,0000.05,0000.10,0000.07,0000.04,0000.39,0000.14,19.4,25.4,10.1,07.0,0673.2,31.2
2021-07-03T17:08:00Z,00000200,00000000,0001.17,0000.49,0000.38,-000.26,0000.08,0000.29,0000.01,-000.23,0000.02,19.4,25.5,10.2,07.0,0673.3,31.1
2021-07-03T17:09:00Z,00000200,00000000,0000.46,0000.44,0000.11,0000.49,0000.10,-000.05,0000.23,0000.23,-000.06,19.4,25.4,10.2,07.0,0673.4,31.1
2021-07-03T17:10:00Z,00000200,00000000,0001.51,0000.70,0000.18,0000.67,0000.10,-000.01,0000.30,0000.58,0000.43,19.4,25.4,10.3,07.1,0673.4,31.1
2021-07-03T17:11:00Z,00000200,00000000,0000.55,0000.54,0000.06,-000.01,0000.31,-000.03,0000.10,-000.25,-000.01,19.3,25.4,10.4,07.2,0673.3,31.1
2021-07-03T17:12:00Z,00000200,00000000,0001.03,0000.38,0000.18,0000.25,0000.05,-000.15,0000.16,0000.38,0000.19,19.3,25.4,10.4,07.2,0673.4,31.1
2021-07-03T17:13:00Z,00000200,00000000,0001.00,0000.52,0000.08,0000.13,0000.09,0000.04,-000.01,-000.48,-000.19,19.3,25.4,10.4,07.2,0673.3,31.1
2021-07-03T17:14:00Z,00000200,00000000,0001.01,0000.73,0000.53,0000.29,0000.00,0000.28,-000.36,0000.25,-000.04,19.3,25.4,10.4,07.2,0673.4,31.1
2021-07-03T17:15:00Z,00000200,00000000,0000.79,0000.76,0000.04,-000.18,-000.03,-000.00,0000.42,0000.05,0000.24,19.3,25.4,10.3,07.1,0673.3,31.1
2021-07-03T17:16:00Z,00000200,00000000,0001.20,0000.13,0000.16,0000.21,0000.18,0000.18,-000.12,-000.08,-000.17,19.3,25.4,10.4,07.2,0673.3,31.1
2021-07-03T17:17:00Z,00000200,00000000,0000.96,0000.67,0000.01,0000.02,0000.15,0000.17,-000.03,0000.38,0000.27,19.3,25.4,10.3,07.2,0673.3,31.1
2021-07-03T17:18:00Z,00000200,00000000,0001.09,0000.65,0000.54,0000.12,-000.15,0000.20,0000.57,-000.04,0000.03,19.3,25.4,10.2,07.1,0673.3,31.1
2021-07-03T17:19:00Z,00000200,00000000,0000.94,0000.43,0000.24,0000.16,0000.04,0000.06,-000.08,0000.48,-000.00,19.3,25.4,10.3,07.1,0673.3,31.1
2021-07-03T17:20:00Z,00000200,00000000,0001.03,0000.56,0000.03,0000.02,-000.03,0000.15,-000.18,-000.44,0000.05,19.3,25.4,10.3,07.2,0673.3,31.1
2021-07-03T17:21:00Z,00000200,00000000,0001.21,0000.37,0000.11,0000.02,0000.07,0000.00,0000.03,0000.05,0000.07,19.3,25.4,10.2,07.1,0673.4,31.1
2021-07-03T17:22:00Z,00000200,00000000,0000.73,0000.19,0000.25,-000.23,0000.15,0000.04,0000.04,0000.23,0000.20,19.3,25.4,10.2,07.1,0673.4,31.1
2021-07-03T17:23:00Z,00000200,00000000,0000.90,0000.81,0000.44,0000.24,0000.06,0000.05,0000.44,0000.01,-000.05,19.3,25.4,10.4,07.2,0673.4,31.1
2021-07-03T17:24:00Z,00000200,00000000,0000.90,0000.53,0000.31,0000.13,-000.05,0000.13,0000.01,0000.21,0000.43,19.3,25.4,10.6,07.3,0673.5,31.1
2021-07-03T17:25:00Z,00000200,00000000,0000.79,0000.43,0000.39,-000.21,0000.35,0000.43,0000.45,0000.15,-000.05,19.3,25.3,10.6,07.3,0673.4,31.1
2021-07-03T17:26:00Z,00000200,00000000,0000.48,0000.49,-000.09,-000.33,0000.14,-000.31,-000.29,0000.05,0000.33,19.3,25.4,10.6,07.3,0673.5,31.1
2021-07-03T17:27:00Z,00000200,00000000,0001.01,0000.49,0000.30,0000.39,0000.09,0000.01,0000.38,0000.02,-000.06,19.3,25.4,10.9,07.5,0673.5,31.1
2021-07-03T17:28:00Z,00000200,00000000,0000.34,0000.61,0000.01,-000.31,-000.09,0000.07,0000.10,0000.47,0000.01,19.3,25.3,10.9,07.5,0673.5,31.1
2021-07-03T17:29:00Z,00000200,00000000,0000.96,0000.13,0000.10,0000.03,0000.03,-000.02,-000.13,0000.00,0000.21,19.3,25.3,10.7,07.4,0673.5,31.1
2021-07-03T17:30:00Z,00000200,00000000,0000.45,0000.68,0000.11,0000.22,0000.13,0000.34,0000.36,0000.10,0000.06,19.3,25.3,10.9,07.5,0673.5,31.1
2021-07-03T17:31:00Z,00000200,00000000,0000.90,0000.65,0000.19,-000.35,-000.03,0000.43,0000.28,0000.04,0000.20,19.3,25.3,10.8,07.5,0673.5,31.1
2021-07-03T17:32:00Z,00000200,00000000,0000.53,0000.53,0000.27,0000.12,0000.08,0000.25,-000.06,-000.02,-000.06,19.3,25.3,10.8,07.5,0673.5,31.1
2021-07-03T17:33:00Z,00000200,00000000,0000.66,0000.38,0000.00,-000.08,0000.21,-000.17,-000.27,0000.06,-000.19,19.2,25.3,10.9,07.5,0673.3,31.1
2021-07-03T17:34:00Z,00000200,00000000,0000.69,0000.67,0000.26,-000.08,-000.14,0000.02,0000.39,0000.14,0000.27,19.2,25.3,10.9,07.6,0673.4,31.1
2021-07-03T17:35:00Z,00000200,00000000,0000.65,0000.51,0000.22,-000.07,-000.04,-000.21,-000.27,0000.12,-000.07,19.2,25.3,10.7,07.4,0673.3,31.1
2021-07-03T17:36:00Z,00000200,00000000,0000.85,0000.59,0000.35,-000.47,-000.00,0000.28,0000.10,-000.45,-000.18,19.2,25.3,10.5,07.3,0673.3,31.1
2021-07-03T17:37:00Z,00000200,00000000,0000.10,0000.69,0000.06,0000.02,0000.04,-000.27,0000.07,0000.01,0000.05,19.2,25.3,10.5,07.3,0673.2,31.1
2021-07-03T17:38:00Z,00000200,00000000,0001.04,0000.90,0000.10,-000.03,0000.04,0000.28,0000.18,0000.27,0000.14,19.2,25.3,10.6,07.3,0673.3,31.1
2021-07-03T17:39:00Z,00000200,00000000,0000.79,0000.44,0000.27,0000.61,0000.31,0000.34,-000.10,0000.06,-000.11,19.2,25.3,10.7,07.4,0673.3,31.1
2021-07-03T17:40:00Z,00000200,00000000,0000.43,0000.74,0000.17,-000.01,0000.23,0000.09,-000.11,0000.13,0000.12,19.2,25.3,10.5,07.3,0673.3,31.1
2021-07-03T17:41:00Z,00000200,00000000,0000.99,0000.64,-000.10,0000.43,0000.44,0000.29,0000.57,0000.29,0000.33,19.2,25.3,10.5,07.3,0673.4,31.1
2021-07-03T17:42:00Z,00000200,00000000,0001.42,0000.53,0000.10,-000.16,0000.24,0000.30,-000.01,-000.08,-000.19,19.2,25.3,10.7,07.4,0673.4,31.1
2021-07-03T17:43:00Z,00000200,00000000,0000.84,0000.51,0000.21,0000.34,-000.02,0000.12,-000.10,0000.00,0000.29,19.2,25.3,10.9,07.6,0673.4,31.1
2021-07-03T17:44:00Z,00000200,00000000,0000.70,0000.56,0000.50,0000.17,0000.17,-000.08,0000.06,-000.03,0000.05,19.2,25.3,10.8,07.5,0673.3,31.1
2021-07-03T17:45:00Z,00000200,00000000,0001.08,0000.41,0000.02,-000.28,-000.30,-000.18,0000.06,0000.10,-000.26,19.2,25.3,10.6,07.3,0673.3,31.1
2021-07-03T17:46:00Z,00000200,00000000,0001.67,0000.60,-000.17,-000.46,0000.06,0000.09,0000.38,0000.28,0000.66,19.2,25.2,10.6,07.3,0673.3,31.1
2021-07-03T17:47:00Z,00000200,00000000,0000.33,0000.70,0000.26,0000.60,-000.02,0000.22,0000.22,0000.16,0000.14,19.2,25.2,10.9,07.5,0673.4,31.1
2021-07-03T17:48:00Z,00000200,00000000,0000.66,0000.51,0000.49,-000.50,-000.02,-000.01,-000.08,0000.46,-000.12,19.2,25.2,10.9,07.5,0673.3,31.1
2021-07-03T17:49:00Z,00000200,00000000,0000.28,0000.37,0000.08,0000.28,0000.39,0000.12,0000.28,-000.42,0000.10,19.2,25.2,11.0,07.6,0673.3,31.1
2021-07-03T17:50:00Z,00000200,00000000,0000.92,0000.71,-000.02,0000.12,0000.10,-000.01,-000.27,0000.00,-000.34,19.2,25.2,11.1,07.7,0673.3,31.1
2021-07-03T17:51:00Z,00000200,00000000,0001.14,0000.49,0000.14,0000.16,-000.10,0000.07,0000.35,0000.33,0000.55,19.2,25.2,11.0,07.6,0673.4,31.1
2021-07-03T17:52:00Z,00000200,00000000,0001.19,0000.43,0000.29,-000.17,-000.14,-000.27,-000.28,-000.19,-000.07,19.2,25.2,10.9,07.5,0673.2,31.1
2021-07-03T17:53:00Z,00000200,00000000,0001.35,0000.48,0000.12,0000.33,-000.10,0000.01,0000.43,0000.28,-000.01,19.2,25.3,10.8,07.4,0673.4,31.1
2021-07-03T17:54:00Z,00000200,00000000,0001.44,0000.37,0000.24,-000.34,0000.13,0000.08,-000.23,0000.07,-000.09,19.3,25.3,10.9,07.5,0673.3,31.2
2021-07-03T17:55:00Z,00000200,00000000,0000.78,0000.31,0000.09,0000.43,0000.10,0000.04,0000.34,0000.17,0000.13,19.4,25.4,10.8,07.5,0673.3,31.2
2021-07-03T17:56:00Z,00000200,00000000,-000.03,0000.53,0000.48,0000.12,0000.11,0000.02,-000.01,0000.03,0000.22,19.5,25.4,10.7,07.4,0673.3,31.2
2021-07-03T17:57:00Z,00000200,40000000,,,,,,,-000.41,-000.16,-000.39,19.5,25.5,10.4,07.2,0673.4,31.2
2021-07-03T17:58:00Z,00000200,60000000,,,,,,,0000.17,0000.11,0000.25,19.4,25.6,10.6,07.2,0672.3,31.2
2021-07-03T17:59:00Z,00000200,20000000,,,,,,,0000.11,0000.14,0000.18,19.4,25.7,10.6,07.2,0672.2,31.2
